{"data":{"norad_id":52483,"intl_designator":"2022-049AJ","name":"STARLINK-3875","alt_names":[],"object_type":"PAYLOAD","status":"ACTIVE","operator":null,"country":"US","launch_date":"2022-05-06","launch_site_code":"AFETR","launch_vehicle":null,"mission":null,"orbit_class":"UNKNOWN","rcs_meters":null,"size_class":null,"mass_kg":null,"dimensions":null,"purposes":["comms"],"wikipedia_slug":null,"has_3d_model":false,"image_url":null,"decayed_at":null,"tle_current":{"epoch":"2026-09-19T22:33:57.339072Z","epoch_age_seconds":111641,"freshness":"FRESH","line1":"1 52483U 22049AJ  26262.94024698 -.00066220  00000+0 -19417-2 0  9990","line2":"2 52483  53.1600 245.9899 0001644 104.6629 255.4556 15.34788534243108","mean_motion":15.34788534,"eccentricity":0.0001644,"inclination_deg":53.16,"raan_deg":245.9899,"arg_perigee_deg":104.6629,"mean_anomaly_deg":255.4556,"bstar":-0.0019417,"rev_number":24310,"period_min":93.824000381801,"perigee_km":460.42423457767,"apogee_km":462.6731232289,"semimajor_km":6839.6856789033,"source":"CELESTRAK","updated_at":"2026-09-20T09:00:40.053721Z"}}}